Medford, WI

8:47 AM CDT on April 20, 2018 (GMT -0500)
Taylor County

Weather History for KMDZ - April, 2013

Change the Weather History Date:

Friday, April 12, 2013

  Actual Average Record
Temperature  
Mean Temperature 30 °F -  
Max Temperature 33 °F 50 °F 80 °F (1977)
Min Temperature 26 °F 30 °F 12 °F (1950)
Degree Days  
Heating Degree Days 36    
Moisture  
Dew Point 26 °F    
Average Humidity 86    
Maximum Humidity 93    
Minimum Humidity 75    
Precipitation  
Precipitation 0.00 in - - ()
Sea Level Pressure  
Sea Level Pressure 29.63 in    
Wind  
Wind Speed 8 mph (NNE)    
Max Wind Speed 13 mph    
Max Gust Speed 16 mph    
Visibility 6 miles    
Events Snow    
Averages and records for this station are not official NWS values.
T = Trace of Precipitation, MM = Missing Value Source: NWS Daily Summary

Daily Weather History Graph

Daily Weather History Graph

Search for Another Location

Airport or City:

Astronomy

Apr. 12, 2013 Rise Set
Actual Time 6:21 AM CDT 7:43 PM CDT
Civil Twilight 5:50 AM CDT 8:13 PM CDT
Nautical Twilight 5:14 AM CDT 8:50 PM CDT
Astronomical Twilight 4:34 AM CDT 9:30 PM CDT
Moon 7:25 AM CDT (4/12) 10:21 PM CDT (4/12)
Length of Visible Light 14h 23m
Length of Day
13h 22m
Waxing Crescent, 5% of the Moon is Illuminated
Apr 12
Waxing Crescent
Apr 18
First Quarter
Apr 25
Full
May 2
Last Quarter
May 9
New

Hourly Weather History & Observations

Time (CDT) Temp. Windchill Dew Point Humidity Pressure Visibility Wind Dir Wind Speed Gust Speed Precip Events Conditions
12:15 AM 28.4 °F 18.5 °F 24.8 °F 86% 29.64 in 2.5 mi ENE 11.5 mph - N/A Snow Light Snow
12:35 AM 28.4 °F 19.1 °F 24.8 °F 86% 29.64 in 2.0 mi ENE 10.4 mph 16.1 mph N/A Snow Light Snow
12:55 AM 28.4 °F 20.4 °F 26.6 °F 93% 29.63 in 1.0 mi ENE 8.1 mph - N/A Snow Snow
1:15 AM 28.4 °F 19.7 °F 24.8 °F 86% 29.63 in 1.5 mi ENE 9.2 mph - N/A Snow Light Snow
1:35 AM 26.6 °F 17.5 °F 24.8 °F 93% 29.62 in 2.0 mi ENE 9.2 mph - N/A Snow Light Snow
1:55 AM 26.6 °F 17.5 °F 24.8 °F 93% 29.61 in 1.5 mi ENE 9.2 mph - N/A Snow Light Snow
2:15 AM 26.6 °F 17.5 °F 24.8 °F 93% 29.60 in 3.0 mi ENE 9.2 mph - N/A Snow Light Snow
2:35 AM 26.6 °F 16.8 °F 24.8 °F 93% 29.59 in 2.5 mi NE 10.4 mph - N/A Snow Light Snow
2:55 AM 26.6 °F 17.5 °F 24.8 °F 93% 29.59 in 3.0 mi NE 9.2 mph - N/A Snow Light Snow
3:15 AM 26.6 °F 19.1 °F 24.8 °F 93% 29.59 in 2.0 mi NE 6.9 mph - N/A Snow Light Snow
3:35 AM 26.6 °F 18.2 °F 24.8 °F 93% 29.59 in 1.8 mi NE 8.1 mph - N/A Snow Light Snow
3:55 AM 26.6 °F 19.1 °F 24.8 °F 93% 29.59 in 2.5 mi NE 6.9 mph - N/A Snow Light Snow
4:15 AM 26.6 °F 18.2 °F 24.8 °F 93% 29.58 in 4.0 mi NE 8.1 mph - N/A Snow Light Snow
4:35 AM 26.6 °F 18.2 °F 24.8 °F 93% 29.58 in 7.0 mi NE 8.1 mph - N/A Snow Light Snow
4:55 AM 26.6 °F 16.8 °F 24.8 °F 93% 29.58 in 10.0 mi NE 10.4 mph - N/A   Overcast
5:15 AM 26.6 °F 17.5 °F 24.8 °F 93% 29.58 in 10.0 mi NE 9.2 mph - N/A   Overcast
5:35 AM 26.6 °F 18.2 °F 24.8 °F 93% 29.58 in 7.0 mi NE 8.1 mph - N/A Snow Light Snow
5:55 AM 26.6 °F 18.2 °F 24.8 °F 93% 29.58 in 7.0 mi NE 8.1 mph - N/A Snow Light Snow
6:15 AM 26.6 °F 18.2 °F 24.8 °F 93% 29.58 in 5.0 mi NE 8.1 mph - N/A Snow Light Snow
6:35 AM 26.6 °F 19.1 °F 24.8 °F 93% 29.58 in 10.0 mi NE 6.9 mph - N/A Snow Light Snow
6:55 AM 26.6 °F 18.2 °F 24.8 °F 93% 29.58 in 10.0 mi NE 8.1 mph - N/A   Overcast
7:15 AM 26.6 °F 17.5 °F 24.8 °F 93% 29.58 in 10.0 mi NE 9.2 mph - N/A   Overcast
7:35 AM 26.6 °F 17.5 °F 24.8 °F 93% 29.58 in 10.0 mi NE 9.2 mph - N/A   Overcast
7:55 AM 26.6 °F 18.2 °F 24.8 °F 93% 29.58 in 7.0 mi NE 8.1 mph - N/A   Overcast
8:15 AM 28.4 °F 18.0 °F 24.8 °F 86% 29.58 in 10.0 mi NE 12.7 mph 16.1 mph N/A   Overcast
8:35 AM 28.4 °F 19.7 °F 24.8 °F 86% 29.59 in 3.0 mi NE 9.2 mph - N/A Snow Light Snow
8:55 AM 28.4 °F 19.1 °F 24.8 °F 86% 29.59 in 5.0 mi NE 10.4 mph - N/A Snow Light Snow
9:15 AM 28.4 °F 19.1 °F 24.8 °F 86% 29.59 in 10.0 mi ENE 10.4 mph - N/A   Overcast
9:55 AM 30.2 °F 20.8 °F 24.8 °F 80% 29.59 in 10.0 mi NE 11.5 mph - N/A Snow Light Snow
10:15 AM 30.2 °F 21.9 °F 24.8 °F 80% 29.59 in 10.0 mi ENE 9.2 mph - N/A   Overcast
10:35 AM 30.2 °F 21.9 °F 24.8 °F 80% 29.60 in 5.0 mi ENE 9.2 mph - N/A Snow Light Snow
10:55 AM 30.2 °F 22.6 °F 24.8 °F 80% 29.61 in 1.5 mi ENE 8.1 mph - N/A Snow Light Snow
11:15 AM 30.2 °F 23.4 °F 24.8 °F 80% 29.61 in 1.8 mi NE 6.9 mph - N/A Snow Light Snow
11:35 AM 30.2 °F 24.3 °F 26.6 °F 86% 29.61 in 1.5 mi ENE 5.8 mph - N/A Snow Light Snow
11:55 AM 30.2 °F 26.7 °F 26.6 °F 86% 29.62 in 1.8 mi NE 3.5 mph - N/A Snow Light Snow
12:15 PM 30.2 °F 25.4 °F 24.8 °F 80% 29.62 in 3.0 mi NE 4.6 mph - N/A Snow Light Snow
12:35 PM 30.2 °F 26.7 °F 24.8 °F 80% 29.61 in 3.0 mi ENE 3.5 mph - N/A Snow Light Snow
12:55 PM 32.0 °F 27.5 °F 26.6 °F 80% 29.61 in 4.0 mi North 4.6 mph - N/A Snow Light Snow
1:15 PM 32.0 °F 27.5 °F 26.6 °F 80% 29.61 in 5.0 mi North 4.6 mph - N/A Snow Light Snow
1:35 PM 32.0 °F - 26.6 °F 80% 29.62 in 5.0 mi Calm Calm - N/A Snow Light Snow
1:55 PM 32.0 °F 28.7 °F 26.6 °F 80% 29.62 in 7.0 mi NNE 3.5 mph - N/A Snow Light Snow
2:15 PM 32.0 °F 28.7 °F 26.6 °F 80% 29.63 in 10.0 mi NNW 3.5 mph - N/A   Overcast
2:35 PM 32.0 °F - 26.6 °F 80% 29.63 in 10.0 mi Calm Calm - N/A   Overcast
2:55 PM 33.8 °F - 26.6 °F 75% 29.64 in 10.0 mi Calm Calm - N/A   Overcast
3:15 PM 33.8 °F - 26.6 °F 75% 29.64 in 10.0 mi Calm Calm - N/A   Overcast
3:35 PM 33.8 °F - 26.6 °F 75% 29.64 in 10.0 mi Calm Calm - N/A   Overcast
3:55 PM 33.8 °F - 26.6 °F 75% 29.64 in 7.0 mi Calm Calm - N/A   Overcast
4:15 PM 33.8 °F - 26.6 °F 75% 29.64 in 10.0 mi Calm Calm - N/A   Overcast
4:35 PM 33.8 °F - 26.6 °F 75% 29.64 in 10.0 mi Calm Calm - N/A   Overcast
4:55 PM 33.8 °F 29.6 °F 26.6 °F 75% 29.65 in 10.0 mi SW 4.6 mph - N/A   Overcast
5:15 PM 33.8 °F 27.7 °F 28.4 °F 81% 29.66 in 10.0 mi SW 6.9 mph - N/A   Overcast
5:35 PM 33.8 °F 29.6 °F 28.4 °F 81% 29.66 in 3.0 mi WSW 4.6 mph - N/A Snow Light Snow
5:55 PM 33.8 °F 28.6 °F 28.4 °F 81% 29.67 in 2.0 mi West 5.8 mph - N/A Snow Light Snow
6:15 PM 33.8 °F 28.6 °F 28.4 °F 81% 29.67 in 5.0 mi West 5.8 mph - N/A Snow Light Snow
6:35 PM 32.0 °F 25.6 °F 28.4 °F 87% 29.67 in 4.0 mi West 6.9 mph - N/A Snow Light Snow
6:55 PM 32.0 °F 25.6 °F 28.4 °F 87% 29.67 in 4.0 mi West 6.9 mph - N/A Snow Light Snow
7:15 PM 32.0 °F 24.8 °F 28.4 °F 87% 29.68 in 7.0 mi NW 8.1 mph - N/A Snow Light Snow
7:35 PM 32.0 °F 24.8 °F 28.4 °F 87% 29.68 in 5.0 mi WNW 8.1 mph - N/A Snow Light Snow
7:55 PM 32.0 °F 27.5 °F 28.4 °F 87% 29.68 in 7.0 mi West 4.6 mph - N/A Snow Light Snow
8:15 PM 32.0 °F 25.6 °F 28.4 °F 87% 29.68 in 10.0 mi WNW 6.9 mph - N/A Snow Light Snow
8:35 PM 30.2 °F 24.3 °F 28.4 °F 93% 29.69 in 3.0 mi West 5.8 mph - N/A Snow Light Snow
8:55 PM 30.2 °F 23.4 °F 28.4 °F 93% 29.70 in 3.0 mi NW 6.9 mph - N/A Snow Light Snow
9:15 PM 30.2 °F 23.4 °F 28.4 °F 93% 29.70 in 10.0 mi NNW 6.9 mph - N/A Snow Light Snow
9:35 PM 30.2 °F 26.7 °F 28.4 °F 93% 29.70 in 10.0 mi NW 3.5 mph - N/A Snow Light Snow
9:55 PM 30.2 °F 26.7 °F 28.4 °F 93% 29.70 in 10.0 mi NNW 3.5 mph - N/A   Overcast
10:15 PM 30.2 °F 24.3 °F 26.6 °F 86% 29.71 in 10.0 mi NNW 5.8 mph - N/A   Overcast
10:35 PM 30.2 °F 25.4 °F 26.6 °F 86% 29.71 in 7.0 mi NNW 4.6 mph - N/A Snow Light Snow
10:55 PM 30.2 °F 25.4 °F 26.6 °F 86% 29.71 in 10.0 mi NNW 4.6 mph - N/A Snow Light Snow
11:15 PM 30.2 °F 22.6 °F 26.6 °F 86% 29.71 in 10.0 mi NW 8.1 mph - N/A Snow Light Snow
11:55 PM 28.4 °F 22.2 °F 26.6 °F 93% 29.71 in 7.0 mi NW 5.8 mph - N/A Snow Light Snow